Temp
-6 -6 -7 -7 -7 -8 -8 -8 -9 -9 -9 -10 -10 -10 -11 -11 -11 -12 -12 -12 -12 -12 -12 -12 -12 -11 -11 -11 -11 -11 -11 -11 -11 -11 -12 -12 -12 -12 -12 -12 -12 -12 -12 -11 -12 -12 -12 -12 -12 -12 -12 -13 -13 -13 -13 -13 -13 -13 -13 -13 -13 -13 -13 -14 -14 -14 -14 -14 -14
-6 -6 -7 -7 -8 -8 -8 -9 -9 -9 -10 -10 -10 -10 -11 -11 -12 -12 -12 -12 -12 -12 -12 -12 -12 -11 -11 -11 -11 -11 -11 -11 -11 -11 -11 -12 -12 -12 -12 -12 -12 -12 -11 -11 -11 -11 -11 -11 -12 -12 -12 -12 -13 -13 -13 -13 -13 -13 -13 -13 -13 -13 -13 -13 -13 -13 -14 -14 -14
-6 -6 -7 -8 -8 -8 -9 -9 -9 -9 -10 -10 -10 -10 -11 -11 -12 -12 -12 -12 -12 -12 -12 -12 -12 -11 -11 -11 -11 -11 -11 -11 -11 -11 -11 -11 -12 -12 -12 -12 -12 -11 -11 -11 -11 -11 -11 -11 -11 -11 -12 -12 -12 -13 -13 -13 -13 -13 -13 -13 -13 -13 -13 -13 -13 -13 -13 -13 -13
-6 -7 -7 -8 -8 -8 -9 -9 -9 -9 -10 -10 -10 -10 -11 -11 -12 -12 -12 -12 -12 -12 -12 -12 -12 -12 -11 -11 -11 -11 -11 -11 -11 -11 -11 -11 -11 -11 -11 -11 -11 -11 -11 -11 -11 -11 -11 -11 -11 -11 -12 -12 -12 -12 -12 -12 -13 -13 -13 -13 -13 -13 -13 -13 -13 -13 -13 -13 -13
-6 -7 -7 -8 -8 -8 -9 -9 -9 -9 -10 -10 -10 -11 -11 -11 -11 -11 -12 -12 -12 -11 -11 -11 -12 -12 -11 -11 -11 -11 -11 -11 -11 -11 -11 -11 -11 -11 -11 -11 -11 -11 -11 -11 -11 -11 -11 -11 -11 -11 -11 -12 -12 -12 -12 -12 -12 -13 -13 -13 -13 -13 -13 -13 -13 -13 -13 -13 -13
-6 -7 -7 -8 -8 -8 -9 -9 -9 -9 -10 -10 -10 -11 -11 -11 -11 -11 -11 -11 -11 -11 -11 -11 -11 -11 -11 -11 -11 -11 -11 -10 -10 -11 -11 -11 -11 -11 -11 -11 -11 -11 -11 -11 -11 -11 -11 -11 -11 -11 -11 -11 -11 -12 -12 -12 -12 -12 -13 -13 -13 -13 -13 -13 -12 -12 -12 -12 -12
-6 -7 -7 -8 -8 -8 -9 -9 -9 -9 -10 -10 -10 -11 -11 -11 -11 -11 -11 -11 -11 -11 -11 -11 -11 -11 -11 -11 -11 -11 -11 -10 -10 -10 -10 -11 -11 -11 -11 -11 -11 -11 -11 -11 -11 -11 -11 -11 -11 -11 -11 -11 -11 -11 -11 -11 -12 -12 -12 -12 -12 -12 -12 -12 -12 -11 -11 -12 -12
-6 -7 -7 -8 -8 -8 -9 -9 -9 -10 -10 -10 -10 -10 -11 -11 -11 -11 -11 -11 -11 -11 -11 -11 -11 -11 -11 -11 -11 -11 -11 -10 -10 -10 -10 -10 -10 -11 -11 -11 -11 -11 -11 -11 -11 -11 -11 -11 -11 -11 -11 -11 -11 -11 -11 -11 -11 -11 -12 -12 -12 -12 -12 -12 -11 -11 -11 -11 -11
-6 -7 -7 -8 -8 -8 -9 -9 -9 -10 -10 -10 -10 -10 -10 -11 -11 -11 -11 -11 -11 -11 -11 -11 -11 -11 -11 -11 -11 -11 -11 -10 -10 -10 -10 -10 -10 -11 -11 -11 -11 -11 -11 -11 -11 -11 -11 -11 -11 -11 -11 -11 -11 -11 -11 -11 -11 -11 -11 -11 -11 -11 -11 -11 -11 -10 -10 -11 -11
-6 -7 -7 -8 -8 -8 -9 -9 -9 -10 -10 -10 -10 -10 -10 -11 -11 -11 -11 -11 -11 -11 -11 -11 -11 -11 -11 -11 -11 -11 -11 -10 -10 -10 -10 -10 -10 -11 -11 -11 -11 -11 -11 -11 -10 -10 -10 -10 -10 -10 -10 -11 -11 -11 -11 -11 -11 -11 -11 -11 -11 -11 -11 -10 -10 -10 -10 -11 -11
-6 -7 -7 -8 -8 -8 -9 -9 -9 -10 -10 -10 -10 -10 -10 -11 -11 -11 -11 -11 -11 -11 -11 -11 -11 -11 -11 -11 -10 -11 -10 -10 -10 -10 -10 -10 -10 -10 -10 -11 -11 -11 -11 -11 -10 -10 -10 -10 -10 -10 -10 -10 -10 -11 -10 -10 -10 -10 -10 -10 -10 -10 -10 -10 -10 -10 -10 -10 -10
-6 -7 -7 -7 -8 -8 -9 -9 -9 -9 -10 -10 -10 -10 -10 -11 -11 -11 -11 -11 -11 -11 -11 -11 -11 -10 -10 -10 -10 -10 -10 -10 -10 -10 -10 -10 -10 -10 -10 -10 -11 -11 -11 -11 -11 -10 -10 -9 -9 -10 -10 -10 -10 -10 -10 -10 -10 -10 -10 -10 -10 -10 -10 -10 -10 -10 -10 -10 -10
-6 -7 -7 -8 -8 -8 -9 -9 -9 -9 -10 -10 -10 -10 -10 -10 -11 -11 -11 -11 -11 -11 -11 -11 -11 -10 -10 -10 -10 -10 -10 -10 -10 -10 -10 -10 -10 -10 -10 -10 -10 -10 -11 -11 -11 -10 -10 -9 -9 -9 -9 -10 -10 -10 -10 -10 -10 -10 -10 -10 -10 -10 -10 -10 -10 -10 -10 -10 -10
-6 -7 -7 -7 -8 -8 -8 -9 -9 -9 -9 -10 -10 -10 -10 -10 -11 -11 -11 -11 -11 -11 -11 -11 -11 -11 -10 -10 -10 -10 -10 -10 -10 -10 -10 -10 -10 -10 -10 -10 -10 -10 -11 -11 -11 -10 -10 -10 -9 -9 -9 -9 -9 -9 -9 -10 -10 -10 -10 -10 -10 -10 -10 -10 -9 -9 -9 -9 -9
-6 -7 -7 -7 -8 -8 -8 -9 -9 -9 -9 -10 -10 -10 -10 -10 -11 -11 -11 -11 -11 -11 -11 -11 -11 -11 -10 -10 -10 -10 -10 -10 -10 -10 -10 -10 -10 -10 -10 -10 -10 -10 -11 -11 -11 -10 -10 -10 -9 -9 -9 -9 -9 -9 -9 -9 -10 -10 -10 -10 -10 -10 -10 -10 -10 -9 -9 -9 -9
-7 -7 -7 -7 -8 -8 -8 -9 -9 -9 -9 -10 -10 -10 -10 -10 -10 -11 -11 -11 -11 -11 -11 -11 -11 -11 -11 -10 -10 -10 -10 -10 -10 -10 -10 -10 -10 -10 -10 -10 -10 -10 -11 -11 -11 -10 -10 -10 -10 -9 -9 -9 -9 -9 -9 -9 -9 -9 -9 -9 -10 -10 -10 -9 -9 -9 -9 -9 -9
-7 -7 -7 -7 -8 -8 -8 -8 -9 -9 -9 -9 -10 -10 -10 -10 -10 -11 -11 -11 -11 -11 -11 -11 -11 -11 -11 -11 -10 -10 -10 -10 -10 -10 -10 -10 -10 -10 -10 -10 -10 -11 -11 -11 -11 -10 -10 -10 -10 -10 -9 -9 -9 -9 -9 -9 -9 -9 -9 -9 -9 -9 -9 -9 -9 -9 -9 -9 -9
-7 -7 -7 -7 -7 -8 -8 -8 -8 -9 -9 -9 -10 -10 -10 -10 -10 -10 -11 -11 -11 -11 -11 -11 -11 -11 -11 -11 -10 -10 -10 -10 -10 -10 -10 -10 -10 -10 -10 -10 -10 -11 -11 -11 -11 -11 -10 -10 -10 -10 -10 -10 -9 -9 -9 -9 -9 -9 -9 -9 -9 -9 -9 -9 -9 -9 -9 -9 -9
-7 -7 -7 -7 -7 -8 -8 -8 -8 -9 -9 -9 -9 -10 -10 -10 -10 -10 -11 -11 -11 -11 -11 -11 -11 -11 -11 -11 -11 -11 -10 -10 -10 -10 -10 -10 -10 -10 -10 -10 -10 -11 -11 -11 -11 -11 -10 -10 -10 -10 -10 -10 -10 -9 -9 -9 -9 -9 -9 -9 -9 -9 -9 -9 -9 -9 -9 -9 -8
-7 -7 -7 -7 -7 -8 -8 -8 -8 -8 -9 -9 -9 -9 -10 -10 -10 -10 -11 -11 -11 -11 -11 -11 -11 -11 -11 -11 -11 -11 -11 -11 -10 -10 -10 -10 -10 -10 -10 -10 -10 -11 -11 -11 -11 -11 -10 -10 -10 -10 -10 -10 -10 -10 -10 -10 -9 -9 -9 -9 -9 -9 -9 -9 -9 -9 -9 -9 -9
-7 -7 -7 -7 -7 -8 -8 -8 -8 -8 -9 -9 -9 -9 -10 -10 -10 -10 -10 -11 -11 -11 -11 -11 -11 -11 -11 -11 -11 -11 -11 -11 -11 -10 -10 -10 -10 -10 -10 -10 -10 -10 -10 -11 -11 -11 -10 -10 -10 -10 -10 -10 -10 -10 -10 -10 -10 -10 -10 -10 -10 -10 -10 -10 -10 -9 -9 -9 -9
-7 -7 -7 -7 -7 -8 -8 -8 -8 -8 -9 -9 -9 -9 -9 -10 -10 -10 -10 -11 -11 -11 -11 -11 -11 -11 -11 -11 -11 -11 -11 -11 -11 -11 -10 -10 -10 -10 -10 -10 -10 -10 -10 -10 -11 -11 -10 -10 -10 -10 -10 -10 -10 -10 -10 -10 -10 -10 -10 -10 -10 -10 -10 -10 -10 -10 -10 -9 -9
-7 -7 -7 -7 -7 -8 -8 -8 -8 -8 -8 -9 -9 -9 -9 -10 -10 -10 -10 -11 -11 -11 -11 -11 -11 -11 -11 -11 -11 -11 -11 -11 -11 -11 -10 -10 -10 -10 -10 -10 -10 -10 -10 -10 -11 -11 -10 -10 -10 -10 -10 -10 -10 -10 -10 -10 -10 -10 -10 -10 -10 -10 -10 -10 -10 -10 -10 -10 -10
-7 -7 -7 -7 -7 -7 -8 -8 -8 -8 -8 -9 -9 -9 -9 -10 -10 -10 -10 -11 -11 -11 -11 -11 -11 -11 -11 -11 -11 -11 -11 -11 -11 -11 -10 -10 -10 -10 -10 -10 -10 -10 -10 -10 -11 -11 -11 -10 -10 -10 -10 -10 -10 -10 -10 -10 -10 -10 -10 -10 -10 -10 -10 -10 -10 -10 -10 -10 -10
-7 -7 -7 -7 -7 -7 -8 -8 -8 -8 -8 -9 -9 -9 -9 -10 -10 -10 -10 -11 -11 -11 -11 -11 -11 -11 -11 -11 -11 -11 -11 -11 -11 -11 -11 -10 -10 -10 -10 -10 -10 -10 -10 -10 -11 -11 -11 -11 -10 -10 -10 -10 -10 -10 -10 -10 -10 -10 -10 -10 -10 -10 -10 -10 -10 -10 -11 -11 -11
-7 -7 -7 -7 -7 -7 -8 -8 -8 -8 -8 -9 -9 -9 -9 -10 -10 -10 -10 -11 -11 -11 -11 -11 -11 -11 -11 -11 -11 -11 -11 -11 -11 -11 -11 -11 -10 -10 -10 -10 -10 -10 -10 -10 -10 -11 -11 -11 -11 -10 -10 -10 -10 -11 -11 -11 -11 -11 -11 -11 -11 -11 -10 -10 -10 -11 -11 -11 -11
-7 -7 -7 -7 -7 -7 -8 -8 -8 -8 -8 -9 -9 -9 -9 -10 -10 -10 -10 -11 -11 -11 -11 -11 -11 -11 -11 -11 -11 -11 -11 -11 -11 -11 -11 -11 -11 -11 -10 -10 -10 -10 -10 -10 -10 -11 -11 -11 -11 -11 -10 -10 -10 -11 -11 -11 -11 -11 -11 -11 -11 -11 -11 -11 -11 -11 -11 -11 -11
-7 -7 -7 -7 -7 -8 -8 -8 -8 -8 -8 -9 -9 -9 -9 -10 -10 -10 -10 -11 -11 -11 -11 -11 -11 -11 -11 -11 -11 -11 -11 -11 -11 -11 -11 -11 -11 -11 -11 -10 -10 -10 -10 -11 -10 -11 -11 -11 -11 -11 -11 -11 -11 -11 -11 -11 -11 -11 -11 -11 -11 -11 -11 -11 -11 -11 -11 -11 -11
-7 -7 -7 -7 -7 -8 -8 -8 -8 -8 -8 -8 -9 -9 -9 -10 -10 -10 -10 -11 -11 -11 -11 -11 -11 -11 -11 -11 -11 -11 -11 -11 -11 -11 -11 -11 -11 -11 -11 -11 -11 -10 -10 -11 -11 -10 -11 -11 -11 -11 -11 -10 -11 -11 -11 -11 -11 -11 -11 -11 -11 -11 -11 -11 -11 -11 -11 -11 -12
-7 -7 -7 -7 -7 -8 -8 -8 -8 -8 -8 -8 -9 -9 -9 -10 -10 -10 -10 -11 -11 -11 -11 -11 -11 -11 -11 -11 -11 -11 -11 -11 -11 -11 -11 -11 -11 -11 -11 -11 -11 -10 -10 -11 -11 -11 -10 -11 -11 -11 -11 -10 -10 -11 -11 -11 -11 -11 -11 -11 -11 -11 -11 -11 -11 -11 -11 -12 -12
-7 -7 -7 -7 -7 -8 -8 -8 -8 -8 -8 -8 -8 -9 -9 -9 -10 -10 -10 -11 -11 -11 -11 -11 -11 -11 -11 -11 -11 -11 -11 -11 -11 -11 -11 -11 -11 -11 -11 -11 -11 -11 -11 -11 -11 -11 -10 -10 -11 -11 -11 -11 -10 -10 -11 -11 -11 -11 -11 -11 -11 -11 -11 -11 -11 -11 -11 -12 -12
-7 -7 -7 -7 -8 -8 -8 -8 -8 -8 -8 -8 -8 -9 -9 -9 -10 -10 -10 -10 -11 -11 -11 -11 -11 -11 -11 -11 -11 -11 -11 -11 -11 -11 -11 -11 -11 -11 -11 -11 -11 -11 -11 -11 -11 -11 -11 -10 -11 -11 -11 -11 -11 -10 -10 -10 -11 -11 -11 -11 -11 -11 -11 -11 -11 -11 -11 -11 -11
-7 -7 -7 -7 -8 -8 -8 -8 -8 -8 -8 -8 -8 -9 -9 -9 -9 -10 -10 -10 -10 -11 -11 -11 -11 -11 -11 -11 -11 -11 -11 -11 -11 -11 -11 -11 -11 -11 -11 -11 -11 -11 -11 -11 -11 -11 -11 -10 -10 -11 -11 -11 -11 -11 -10 -10 -10 -11 -11 -11 -11 -11 -11 -11 -11 -11 -11 -11 -11
-7 -7 -7 -7 -8 -8 -8 -8 -8 -8 -8 -8 -8 -8 -9 -9 -9 -9 -10 -10 -10 -10 -11 -11 -11 -11 -11 -11 -11 -11 -11 -11 -11 -11 -11 -11 -11 -11 -11 -11 -10 -10 -10 -10 -11 -11 -11 -11 -10 -10 -11 -11 -11 -11 -11 -10 -10 -10 -11 -11 -11 -11 -11 -11 -11 -11 -11 -11 -11
-7 -7 -7 -7 -8 -8 -8 -8 -8 -8 -8 -8 -8 -8 -9 -9 -9 -9 -9 -9 -10 -10 -10 -11 -11 -11 -11 -11 -11 -11 -11 -11 -11 -11 -11 -11 -11 -11 -11 -10 -10 -10 -10 -10 -10 -10 -11 -11 -11 -10 -10 -10 -11 -11 -11 -10 -10 -10 -10 -11 -11 -11 -11 -11 -11 -11 -11 -11 -11
-7 -7 -7 -7 -8 -8 -8 -8 -8 -8 -8 -8 -8 -8 -9 -9 -9 -9 -9 -9 -9 -10 -10 -10 -10 -11 -11 -11 -11 -11 -11 -11 -11 -11 -11 -11 -11 -11 -11 -10 -10 -10 -10 -10 -10 -10 -10 -11 -11 -11 -10 -10 -11 -11 -11 -11 -10 -10 -10 -11 -11 -11 -11 -11 -11 -11 -11 -11 -11
-7 -7 -7 -7 -8 -8 -8 -8 -8 -8 -8 -8 -8 -9 -9 -9 -9 -9 -9 -9 -9 -9 -10 -10 -10 -10 -10 -11 -11 -11 -11 -11 -11 -11 -11 -11 -11 -11 -11 -10 -10 -10 -10 -10 -10 -10 -10 -11 -11 -11 -10 -10 -10 -11 -11 -11 -11 -10 -10 -10 -11 -11 -11 -11 -11 -11 -11 -11 -11
-7 -7 -7 -7 -8 -8 -8 -8 -8 -8 -8 -8 -9 -9 -9 -9 -9 -9 -9 -9 -9 -9 -9 -10 -10 -10 -10 -10 -11 -11 -11 -11 -11 -11 -11 -11 -11 -11 -11 -10 -10 -10 -10 -10 -10 -10 -10 -10 -11 -11 -11 -11 -10 -10 -11 -11 -11 -11 -10 -10 -10 -11 -11 -11 -11 -11 -11 -11 -11
-7 -7 -7 -7 -8 -8 -8 -8 -8 -9 -9 -9 -9 -9 -9 -9 -9 -9 -9 -9 -9 -9 -9 -10 -10 -10 -10 -10 -11 -11 -11 -11 -11 -11 -11 -11 -11 -11 -11 -11 -10 -10 -10 -10 -10 -10 -10 -10 -10 -11 -11 -11 -10 -10 -10 -11 -11 -11 -11 -10 -10 -11 -11 -11 -11 -11 -11 -11 -11
-7 -7 -7 -7 -8 -8 -8 -8 -9 -9 -9 -9 -9 -9 -9 -9 -9 -9 -9 -9 -9 -10 -10 -10 -10 -10 -10 -11 -11 -11 -11 -11 -11 -11 -11 -11 -11 -11 -11 -11 -10 -10 -10 -10 -10 -10 -10 -10 -10 -10 -11 -11 -11 -10 -10 -11 -11 -11 -11 -10 -10 -11 -11 -11 -11 -11 -11 -11 -11
-7 -7 -7 -7 -8 -8 -8 -8 -8 -9 -9 -9 -9 -9 -9 -9 -9 -9 -9 -9 -9 -10 -10 -10 -10 -10 -10 -11 -11 -11 -11 -11 -11 -11 -11 -11 -11 -11 -11 -11 -10 -10 -10 -10 -10 -10 -10 -10 -10 -10 -10 -11 -11 -10 -10 -10 -11 -11 -11 -10 -10 -11 -11 -11 -11 -11 -11 -11 -11
Height
1551 1549 1548 1546 1545 1544 1542 1541 1540 1538 1537 1536 1535 1533 1532 1530 1529 1527 1526 1524 1523 1521 1519 1518 1516 1514 1512 1510 1508 1506 1504 1502 1500 1497 1495 1493 1491 1488 1486 1483 1481 1478 1475 1472 1469 1466 1464 1462 1460 1458 1456 1454 1453 1451 1450 1449 1448 1447 1446 1445 1444 1444 1443 1441 1440 1439 1438 1437 1436
1550 1549 1547 1546 1544 1543 1542 1540 1539 1538 1537 1536 1534 1533 1532 1530 1528 1527 1525 1524 1522 1521 1519 1517 1515 1514 1511 1509 1508 1506 1504 1502 1499 1497 1494 1492 1490 1488 1485 1483 1480 1477 1474 1471 1468 1465 1463 1461 1459 1457 1454 1453 1451 1450 1449 1448 1447 1446 1445 1444 1443 1442 1441 1440 1439 1438 1437 1436 1435
1550 1548 1547 1545 1544 1543 1541 1540 1539 1538 1537 1535 1534 1533 1531 1529 1528 1527 1525 1524 1522 1520 1519 1517 1515 1513 1511 1509 1508 1506 1504 1501 1499 1497 1494 1492 1489 1487 1485 1482 1479 1476 1474 1471 1468 1465 1463 1460 1458 1456 1454 1452 1450 1449 1448 1447 1446 1445 1444 1443 1442 1441 1440 1439 1438 1437 1436 1435 1434
1549 1548 1546 1545 1544 1542 1541 1540 1539 1538 1536 1535 1534 1532 1531 1529 1528 1526 1525 1523 1522 1520 1519 1517 1514 1513 1511 1509 1507 1505 1503 1501 1499 1496 1494 1491 1489 1487 1484 1481 1479 1476 1473 1470 1467 1464 1462 1460 1458 1455 1453 1451 1449 1448 1447 1445 1444 1444 1443 1442 1441 1440 1439 1438 1437 1436 1435 1434 1433
1548 1547 1546 1544 1543 1542 1541 1539 1538 1537 1536 1535 1534 1532 1530 1529 1528 1526 1524 1523 1521 1520 1518 1516 1514 1513 1510 1509 1507 1505 1503 1501 1499 1496 1494 1491 1489 1486 1484 1481 1478 1475 1472 1470 1467 1464 1462 1460 1458 1455 1453 1451 1449 1447 1446 1445 1444 1443 1442 1441 1440 1439 1438 1437 1436 1435 1434 1433 1432
1548 1546 1545 1544 1542 1541 1540 1539 1538 1537 1536 1534 1533 1532 1530 1529 1527 1526 1524 1523 1521 1519 1518 1516 1514 1512 1510 1508 1506 1504 1502 1500 1498 1496 1493 1491 1488 1486 1483 1480 1478 1475 1472 1469 1467 1465 1462 1460 1458 1455 1453 1451 1449 1447 1446 1444 1443 1442 1441 1440 1439 1438 1437 1436 1435 1434 1433 1432 1431
1547 1545 1544 1543 1542 1540 1539 1538 1537 1536 1535 1534 1533 1531 1530 1529 1527 1525 1524 1522 1521 1519 1517 1515 1514 1512 1510 1508 1506 1504 1502 1500 1498 1496 1493 1491 1488 1485 1483 1480 1477 1475 1472 1470 1468 1465 1463 1460 1458 1455 1453 1451 1449 1447 1445 1444 1443 1441 1440 1439 1439 1438 1437 1435 1434 1433 1432 1431 1430
1546 1545 1544 1542 1541 1540 1539 1538 1537 1536 1534 1534 1532 1531 1530 1528 1527 1525 1524 1522 1520 1519 1517 1515 1513 1511 1509 1507 1505 1504 1501 1499 1498 1495 1493 1490 1488 1485 1483 1480 1477 1475 1472 1470 1468 1465 1463 1460 1459 1456 1454 1452 1449 1447 1445 1444 1443 1441 1440 1439 1438 1437 1436 1435 1434 1433 1431 1430 1429
1545 1544 1543 1542 1540 1539 1538 1537 1536 1535 1534 1533 1532 1531 1529 1528 1526 1524 1523 1521 1520 1518 1517 1515 1513 1511 1509 1507 1505 1503 1501 1499 1497 1495 1493 1490 1488 1486 1483 1480 1478 1475 1473 1470 1469 1466 1464 1461 1459 1457 1455 1453 1450 1448 1446 1444 1442 1441 1440 1439 1438 1437 1436 1435 1434 1432 1431 1429 1429
1544 1543 1542 1541 1540 1539 1537 1536 1535 1534 1534 1533 1531 1530 1529 1527 1526 1524 1523 1521 1519 1518 1516 1514 1513 1511 1509 1507 1505 1503 1501 1499 1497 1495 1493 1490 1488 1486 1484 1481 1478 1475 1473 1471 1469 1467 1464 1462 1460 1458 1455 1453 1451 1449 1447 1444 1443 1441 1440 1439 1438 1437 1436 1435 1434 1432 1430 1429 1428
1544 1543 1541 1540 1539 1538 1537 1536 1535 1534 1533 1532 1531 1529 1528 1527 1525 1524 1522 1520 1519 1517 1516 1514 1512 1510 1509 1507 1505 1503 1501 1499 1497 1495 1493 1491 1489 1486 1484 1481 1479 1476 1474 1471 1470 1468 1465 1463 1461 1459 1456 1454 1451 1449 1447 1445 1444 1442 1441 1440 1439 1438 1437 1436 1434 1432 1430 1429 1428
1543 1542 1540 1539 1538 1537 1536 1535 1534 1533 1532 1531 1530 1529 1527 1526 1524 1523 1521 1520 1519 1517 1515 1514 1512 1510 1508 1506 1504 1503 1501 1499 1497 1495 1493 1491 1489 1487 1484 1482 1479 1476 1474 1472 1470 1469 1467 1464 1462 1460 1457 1455 1452 1450 1448 1446 1445 1444 1442 1441 1440 1439 1438 1436 1435 1433 1431 1430 1429
1542 1541 1539 1538 1537 1536 1535 1534 1533 1532 1531 1530 1529 1528 1527 1525 1524 1522 1521 1519 1518 1516 1515 1513 1512 1510 1508 1506 1504 1503 1501 1499 1497 1495 1493 1491 1489 1487 1484 1482 1479 1477 1474 1473 1471 1469 1468 1466 1464 1461 1459 1457 1454 1452 1449 1448 1446 1445 1444 1443 1441 1440 1439 1437 1436 1434 1433 1432 1431
1542 1540 1539 1538 1537 1535 1534 1534 1533 1532 1530 1529 1528 1527 1526 1524 1523 1522 1520 1519 1517 1516 1514 1513 1511 1509 1508 1506 1504 1502 1501 1499 1497 1495 1493 1491 1489 1487 1485 1482 1480 1477 1475 1473 1472 1470 1469 1467 1465 1463 1460 1458 1456 1454 1452 1450 1448 1447 1445 1444 1443 1442 1440 1439 1437 1436 1434 1433 1433
1541 1540 1539 1537 1536 1535 1534 1533 1532 1531 1530 1529 1527 1526 1525 1524 1522 1521 1519 1518 1517 1515 1514 1512 1511 1509 1508 1506 1504 1502 1500 1499 1497 1495 1493 1491 1489 1487 1485 1483 1480 1478 1475 1474 1472 1471 1469 1468 1466 1464 1462 1460 1458 1456 1454 1452 1450 1449 1447 1445 1444 1443 1441 1440 1438 1437 1435 1434 1435
1540 1539 1538 1537 1536 1534 1533 1532 1531 1530 1529 1528 1526 1525 1524 1523 1522 1520 1519 1517 1516 1514 1513 1512 1510 1509 1507 1505 1504 1502 1500 1499 1497 1495 1493 1491 1489 1487 1485 1483 1480 1478 1476 1474 1473 1471 1470 1469 1467 1465 1463 1461 1459 1458 1456 1454 1452 1450 1448 1447 1445 1443 1442 1441 1439 1438 1436 1435 1436
1540 1539 1538 1536 1535 1534 1533 1532 1530 1529 1528 1527 1526 1524 1523 1522 1521 1519 1518 1517 1515 1514 1512 1511 1509 1508 1507 1505 1504 1502 1500 1498 1496 1494 1493 1491 1489 1487 1485 1483 1481 1478 1476 1474 1473 1472 1470 1469 1467 1466 1464 1462 1460 1459 1457 1455 1453 1451 1450 1448 1446 1444 1443 1442 1440 1439 1438 1436 1436
1539 1538 1537 1536 1535 1534 1532 1531 1530 1529 1527 1526 1525 1524 1523 1521 1520 1519 1517 1516 1514 1513 1512 1510 1509 1508 1506 1504 1503 1501 1500 1498 1496 1494 1493 1491 1489 1487 1485 1483 1481 1479 1476 1475 1473 1472 1471 1469 1467 1466 1464 1463 1461 1459 1458 1456 1454 1453 1451 1449 1448 1446 1445 1444 1442 1441 1439 1438 1437
1539 1538 1536 1535 1534 1533 1532 1530 1529 1528 1527 1525 1524 1523 1522 1520 1519 1518 1517 1515 1514 1513 1511 1510 1508 1507 1506 1504 1503 1501 1499 1498 1496 1494 1492 1491 1489 1487 1485 1483 1481 1479 1477 1475 1474 1473 1471 1469 1468 1466 1464 1463 1461 1460 1458 1457 1455 1454 1452 1451 1449 1448 1446 1445 1444 1442 1441 1440 1439
1538 1537 1536 1535 1534 1532 1531 1529 1528 1527 1526 1524 1523 1522 1521 1520 1519 1517 1516 1514 1513 1512 1510 1509 1508 1506 1505 1504 1502 1501 1499 1498 1496 1494 1492 1490 1489 1487 1485 1483 1481 1479 1477 1475 1474 1473 1472 1470 1468 1466 1464 1463 1461 1460 1458 1456 1455 1454 1452 1451 1450 1449 1447 1446 1444 1443 1442 1441 1439
1538 1536 1535 1534 1533 1531 1530 1529 1528 1526 1525 1524 1523 1522 1520 1519 1518 1517 1515 1514 1513 1511 1510 1509 1507 1506 1504 1503 1502 1500 1499 1497 1495 1494 1492 1490 1489 1487 1485 1483 1481 1479 1477 1476 1474 1474 1472 1470 1468 1466 1464 1463 1461 1459 1458 1456 1455 1454 1452 1451 1450 1449 1448 1446 1445 1444 1443 1441 1440
1537 1536 1535 1534 1532 1531 1530 1529 1527 1526 1525 1524 1522 1521 1520 1519 1517 1516 1515 1513 1512 1510 1509 1508 1506 1505 1504 1502 1501 1499 1498 1497 1495 1494 1492 1490 1489 1487 1485 1483 1481 1479 1478 1476 1475 1474 1472 1470 1468 1466 1464 1463 1461 1459 1458 1456 1455 1454 1452 1451 1450 1449 1448 1446 1445 1444 1443 1442 1440
1536 1535 1534 1533 1532 1530 1529 1528 1527 1526 1524 1523 1522 1520 1519 1518 1517 1515 1514 1513 1511 1510 1509 1507 1506 1504 1503 1502 1500 1499 1498 1496 1495 1493 1492 1490 1488 1487 1485 1483 1481 1479 1478 1478 1476 1474 1472 1470 1468 1466 1464 1463 1461 1459 1458 1456 1455 1453 1452 1451 1449 1448 1447 1446 1445 1444 1442 1441 1440
1536 1535 1534 1532 1531 1530 1529 1528 1526 1525 1524 1523 1521 1520 1519 1517 1516 1515 1514 1512 1511 1509 1508 1506 1505 1504 1502 1501 1500 1499 1497 1496 1494 1493 1491 1490 1488 1486 1484 1483 1481 1480 1479 1478 1477 1474 1472 1470 1468 1466 1464 1463 1461 1459 1458 1457 1455 1454 1452 1450 1449 1448 1446 1445 1444 1443 1442 1440 1439
1535 1534 1533 1532 1530 1529 1528 1527 1526 1524 1523 1522 1521 1519 1518 1517 1515 1514 1513 1512 1510 1509 1507 1506 1504 1503 1502 1500 1499 1498 1497 1495 1494 1492 1491 1489 1488 1486 1484 1483 1481 1479 1479 1479 1477 1475 1473 1470 1469 1467 1465 1463 1461 1460 1458 1457 1455 1454 1452 1450 1449 1447 1446 1444 1443 1442 1440 1439 1439
1535 1534 1532 1531 1530 1529 1528 1526 1525 1524 1523 1521 1520 1519 1517 1516 1515 1514 1512 1511 1509 1508 1507 1505 1504 1503 1501 1500 1499 1498 1496 1495 1494 1492 1490 1489 1487 1486 1484 1483 1481 1479 1478 1479 1477 1475 1473 1471 1469 1467 1465 1463 1461 1460 1458 1457 1455 1454 1452 1450 1449 1447 1445 1444 1442 1441 1440 1439 1438
1534 1533 1532 1530 1529 1528 1527 1526 1524 1523 1522 1521 1519 1518 1517 1515 1514 1513 1512 1510 1509 1508 1506 1505 1503 1502 1501 1499 1498 1497 1496 1495 1494 1492 1490 1489 1487 1486 1484 1483 1481 1479 1478 1478 1477 1475 1474 1472 1469 1467 1465 1464 1462 1460 1458 1457 1455 1453 1452 1450 1449 1447 1445 1444 1442 1441 1439 1438 1437
1533 1532 1531 1530 1529 1527 1526 1525 1524 1523 1521 1520 1519 1517 1516 1514 1513 1512 1511 1509 1508 1507 1506 1504 1503 1502 1500 1499 1498 1497 1495 1494 1493 1492 1490 1489 1487 1486 1484 1483 1481 1479 1478 1477 1477 1476 1474 1472 1470 1468 1466 1464 1462 1460 1459 1457 1455 1454 1452 1450 1449 1447 1445 1444 1442 1441 1439 1438 1437
1533 1531 1530 1529 1528 1527 1525 1524 1523 1522 1520 1519 1518 1516 1515 1514 1513 1511 1510 1509 1508 1506 1505 1504 1503 1501 1500 1499 1497 1496 1495 1494 1493 1491 1490 1489 1487 1486 1484 1483 1481 1479 1478 1477 1477 1476 1474 1472 1470 1468 1466 1464 1463 1461 1459 1458 1456 1454 1453 1451 1449 1448 1446 1444 1443 1441 1440 1439 1437
1532 1531 1529 1528 1527 1526 1525 1524 1522 1521 1520 1519 1517 1516 1514 1513 1512 1511 1509 1508 1507 1506 1505 1504 1502 1501 1500 1498 1497 1496 1495 1494 1492 1491 1489 1488 1487 1485 1484 1482 1481 1479 1478 1477 1476 1475 1474 1472 1470 1468 1466 1465 1463 1462 1460 1459 1457 1455 1454 1452 1450 1449 1447 1445 1444 1442 1441 1439 1438
1531 1530 1529 1528 1526 1525 1524 1523 1522 1520 1519 1518 1516 1515 1514 1512 1511 1510 1509 1508 1506 1505 1504 1503 1502 1501 1499 1498 1497 1495 1494 1493 1492 1490 1489 1488 1486 1485 1483 1482 1480 1479 1477 1476 1475 1475 1474 1472 1470 1468 1467 1465 1463 1462 1460 1459 1458 1456 1454 1453 1451 1449 1448 1446 1444 1443 1441 1440 1438
1530 1529 1528 1527 1526 1524 1523 1522 1521 1520 1519 1517 1516 1514 1513 1512 1510 1509 1508 1507 1506 1504 1504 1502 1501 1500 1499 1497 1496 1495 1494 1492 1491 1490 1489 1487 1486 1484 1483 1481 1480 1479 1477 1476 1475 1474 1473 1472 1470 1468 1466 1465 1463 1462 1460 1459 1458 1457 1455 1454 1452 1450 1449 1447 1445 1444 1442 1440 1439
1529 1528 1527 1526 1525 1524 1523 1522 1520 1519 1518 1517 1515 1514 1512 1511 1510 1509 1508 1506 1505 1504 1503 1501 1500 1499 1498 1497 1495 1494 1493 1492 1490 1489 1488 1486 1485 1484 1482 1481 1479 1478 1477 1475 1474 1473 1472 1471 1470 1468 1466 1464 1463 1462 1460 1459 1458 1457 1455 1454 1452 1450 1449 1447 1446 1444 1442 1441 1439
1529 1528 1526 1525 1524 1523 1522 1521 1520 1519 1517 1516 1515 1513 1512 1510 1509 1508 1507 1505 1504 1503 1502 1501 1499 1498 1497 1496 1494 1493 1492 1491 1489 1488 1487 1486 1484 1483 1482 1480 1479 1478 1476 1475 1474 1473 1472 1471 1470 1468 1466 1464 1463 1462 1460 1459 1458 1457 1455 1454 1452 1451 1449 1448 1446 1444 1443 1441 1439
1528 1527 1526 1524 1524 1522 1521 1520 1519 1518 1517 1515 1514 1513 1511 1510 1509 1507 1506 1505 1504 1502 1501 1500 1499 1498 1496 1495 1494 1493 1491 1490 1489 1487 1486 1485 1483 1482 1481 1479 1478 1477 1476 1474 1473 1472 1471 1470 1469 1468 1466 1464 1462 1461 1460 1459 1457 1456 1455 1454 1452 1451 1449 1448 1446 1444 1443 1441 1439
1527 1526 1525 1524 1523 1522 1520 1519 1518 1517 1516 1515 1514 1512 1511 1509 1508 1507 1505 1504 1503 1502 1500 1499 1498 1497 1495 1494 1493 1492 1490 1489 1488 1486 1485 1484 1482 1481 1480 1478 1477 1476 1475 1474 1473 1471 1470 1469 1468 1467 1466 1464 1462 1461 1459 1458 1457 1455 1454 1453 1452 1450 1449 1447 1446 1444 1443 1441 1439
1526 1525 1524 1523 1522 1521 1520 1519 1518 1517 1515 1514 1513 1512 1510 1509 1508 1506 1505 1504 1502 1501 1499 1498 1497 1496 1494 1493 1492 1491 1489 1488 1487 1485 1484 1483 1482 1480 1479 1477 1476 1475 1474 1473 1472 1470 1469 1468 1468 1467 1465 1463 1462 1460 1459 1458 1456 1455 1454 1453 1451 1450 1449 1447 1445 1444 1442 1441 1439
1525 1524 1523 1522 1521 1520 1519 1518 1517 1516 1515 1514 1512 1511 1510 1509 1507 1505 1504 1503 1501 1500 1499 1497 1496 1495 1494 1492 1491 1490 1489 1487 1486 1485 1483 1482 1481 1479 1478 1476 1475 1474 1473 1472 1471 1469 1469 1467 1466 1466 1464 1463 1461 1459 1458 1457 1455 1454 1453 1452 1451 1449 1448 1446 1445 1443 1442 1440 1439
1524 1523 1522 1521 1520 1519 1518 1517 1516 1515 1514 1513 1512 1510 1509 1508 1506 1505 1504 1502 1501 1499 1498 1496 1495 1494 1493 1491 1490 1489 1488 1486 1485 1484 1483 1481 1480 1479 1477 1476 1474 1473 1472 1471 1470 1469 1468 1466 1465 1465 1464 1462 1460 1459 1457 1456 1454 1453 1452 1451 1449 1449 1447 1446 1444 1443 1441 1440 1439
1523 1522 1521 1520 1519 1518 1518 1517 1515 1514 1514 1512 1511 1510 1509 1507 1506 1504 1503 1502 1500 1499 1497 1496 1494 1493 1492 1491 1489 1488 1487 1486 1484 1484 1482 1481 1479 1478 1477 1475 1474 1472 1471 1470 1469 1468 1467 1466 1464 1464 1463 1462 1460 1458 1456 1454 1454 1452 1451 1450 1449 1447 1446 1445 1443 1442 1440 1439 1438
1522 1521 1520 1519 1519 1518 1517 1516 1515 1514 1513 1512 1510 1509 1508 1507 1505 1504 1503 1501 1500 1498 1497 1495 1494 1493 1492 1490 1489 1488 1486 1485 1484 1483 1481 1480 1479 1477 1476 1474 1473 1472 1470 1469 1468 1467 1466 1465 1464 1462 1461 1461 1459 1457 1455 1454 1452 1451 1450 1449 1448 1446 1445 1444 1442 1441 1439 1438 1437
Wind_Speed
22 22 22 21 20 20 19 19 20 20 20 21 22 23 23 23 22 21 21 20 21 21 22 23 24 25 26 27 27 28 29 31 32 32 32 31 31 32 33 34 35 35 36 37 38 37 36 34 32 30 29 27 26 25 25 24 21 19 18 18 18 19 19 20 21 21 20 19 19
21 21 21 20 19 19 18 18 18 19 19 20 21 22 22 22 22 21 20 20 20 21 22 23 24 26 26 27 27 28 29 31 32 32 32 31 31 32 32 33 34 35 36 36 36 36 35 33 31 29 27 25 24 23 22 21 20 19 18 18 18 18 19 20 20 20 19 18 17
21 20 20 19 18 18 17 17 17 18 19 20 20 21 22 22 21 21 20 20 20 21 22 23 24 26 26 27 27 27 28 30 31 31 32 32 31 31 32 33 33 34 35 36 35 34 33 31 30 27 25 24 22 21 20 19 18 18 18 19 18 18 19 20 20 19 18 17 16
20 19 19 18 17 17 16 16 16 17 18 19 20 21 22 21 21 20 20 20 20 21 22 23 25 26 26 26 26 27 28 29 30 31 31 32 31 31 32 32 32 33 34 36 35 33 31 30 28 26 24 22 21 20 19 18 17 18 18 19 18 19 19 20 20 20 19 17 17
19 19 18 17 17 16 15 15 15 16 17 18 20 20 21 21 20 19 19 19 20 21 22 24 25 25 25 26 26 26 27 29 30 31 31 32 31 31 32 31 32 33 34 35 35 33 30 28 28 26 24 23 21 20 19 18 18 17 18 18 19 19 20 20 20 20 19 19 18
19 19 19 18 16 15 14 14 14 15 16 18 19 20 20 20 19 19 19 19 19 21 22 23 24 25 25 25 25 26 27 28 30 30 31 31 31 31 31 31 32 32 34 34 34 32 29 27 27 27 26 24 23 22 20 19 18 18 18 18 18 19 19 19 19 19 19 19 19
19 19 19 17 16 15 14 14 14 14 16 17 18 19 19 19 19 18 18 18 19 20 22 23 25 25 26 25 25 26 26 28 29 30 31 31 31 31 31 31 32 32 33 33 33 31 29 27 26 26 26 26 25 24 22 20 18 18 17 17 17 17 17 17 16 17 18 18 17
19 19 18 17 16 15 14 13 13 14 15 16 17 18 18 19 19 18 18 18 18 20 22 23 24 25 25 25 25 25 26 27 29 30 30 30 30 30 30 31 32 32 32 32 31 30 28 26 25 25 26 26 26 25 23 21 19 18 17 17 16 15 15 14 14 15 16 16 16
19 19 19 18 17 15 14 13 13 14 14 15 16 17 18 18 18 18 18 18 18 19 21 23 24 25 25 25 25 25 26 27 28 29 30 30 30 30 30 30 31 32 32 31 30 29 28 27 26 25 24 24 24 25 24 22 20 19 17 16 15 14 14 13 13 14 15 15 16
19 19 19 18 17 16 15 14 13 13 14 14 15 16 17 18 18 18 18 18 18 19 20 22 23 24 25 25 25 25 26 26 27 28 29 29 29 29 29 29 30 31 31 31 30 29 28 28 28 27 26 24 23 23 23 22 21 19 17 16 15 15 15 15 15 16 18 19 20
19 19 19 19 18 17 16 14 14 13 13 14 15 16 17 17 18 18 18 18 18 19 19 20 22 23 24 25 25 25 25 25 26 27 27 27 27 27 28 28 29 29 30 31 30 30 29 28 29 29 28 27 25 24 22 21 20 19 18 18 19 19 20 21 21 22 24 26 27
20 20 20 19 19 18 17 15 14 14 14 14 15 15 16 17 18 18 19 19 19 19 19 19 21 22 24 24 25 25 25 25 25 26 26 26 26 26 27 27 28 28 29 30 31 31 30 28 29 29 29 29 28 27 25 23 21 21 21 22 24 24 25 25 26 27 29 30 30
20 20 20 20 19 18 17 16 15 15 14 14 15 15 16 16 18 19 19 20 19 19 19 19 20 21 22 24 24 25 25 25 25 25 26 26 25 25 26 27 27 27 28 28 30 31 30 28 28 28 28 29 29 29 28 25 23 22 22 23 23 24 24 25 26 27 29 29 29
19 20 20 19 19 19 18 17 16 16 15 15 15 15 16 16 17 18 19 20 20 20 19 19 19 20 21 22 23 24 24 25 25 25 25 25 25 25 25 25 26 27 27 27 27 29 29 28 27 27 27 27 27 28 28 26 24 23 22 21 21 21 21 22 22 23 24 25 25
19 19 19 19 19 19 18 18 17 17 16 16 16 16 16 16 17 18 19 20 21 21 20 20 19 19 20 21 22 23 24 24 25 25 25 25 26 25 24 24 25 26 26 25 26 27 27 26 26 26 25 25 25 25 25 25 25 24 23 22 21 21 20 19 19 19 19 20 20
19 19 19 19 19 18 18 18 18 17 17 16 16 16 16 16 17 18 19 20 21 21 21 20 19 19 19 20 21 22 23 24 24 25 25 26 26 26 24 22 23 25 25 25 25 26 26 25 24 24 24 24 23 23 23 23 24 25 25 25 24 23 21 20 19 18 18 18 19
18 18 19 18 18 18 18 18 18 17 17 17 16 16 16 17 17 18 19 20 21 21 21 20 19 19 19 19 20 21 22 23 24 25 25 26 26 27 25 21 21 23 25 24 25 26 25 24 23 22 22 22 21 21 21 21 22 23 24 25 25 24 23 22 21 20 20 20 19
18 18 18 18 18 18 18 18 18 18 17 17 17 16 16 17 17 18 19 20 21 21 21 20 19 19 19 19 20 21 22 23 24 25 25 25 26 26 25 21 19 21 23 24 25 26 25 23 22 21 21 20 20 19 19 19 20 21 21 22 23 23 22 22 21 21 21 20 19
18 18 18 18 18 18 18 18 18 18 17 17 17 16 16 16 17 18 19 20 21 21 20 20 19 18 18 18 19 20 21 22 23 24 25 25 25 26 25 21 18 18 21 23 24 26 26 24 22 21 21 20 19 19 19 18 19 19 20 20 20 20 20 20 19 19 19 18 17
18 18 18 18 18 18 18 18 18 18 17 17 17 16 16 16 17 18 19 20 20 20 20 19 19 18 18 18 18 19 19 21 22 23 24 24 24 25 25 22 18 17 19 21 23 25 26 25 23 22 21 20 20 20 19 19 19 19 19 20 20 19 18 18 17 17 17 16 15
18 18 18 18 18 18 18 18 18 18 17 17 16 16 16 16 17 18 19 20 20 20 19 19 18 18 19 19 19 18 19 19 20 22 23 23 23 24 24 24 20 17 17 19 21 24 26 26 25 23 22 21 21 21 20 20 20 20 19 19 19 18 17 16 16 15 15 14 14
17 17 17 18 18 18 18 18 17 17 17 16 16 15 15 16 16 17 18 19 20 19 19 18 18 19 19 19 18 18 18 18 19 20 21 22 22 22 23 24 23 19 17 17 19 23 26 26 26 25 23 22 21 21 21 21 21 20 20 19 18 17 16 15 15 14 14 13 13
16 17 17 17 18 18 18 17 17 16 16 15 15 15 15 15 16 17 18 19 19 19 19 19 19 19 19 19 18 17 17 17 18 19 19 20 21 21 21 22 23 21 18 16 17 21 25 27 27 26 25 23 22 21 20 20 20 20 20 19 18 18 17 16 15 14 14 13 13
16 16 16 17 17 17 17 17 17 16 16 15 15 15 15 15 16 17 17 18 18 19 19 19 19 19 19 18 17 16 16 16 17 18 18 19 19 19 19 20 21 20 19 17 15 17 22 26 26 26 26 25 23 22 20 20 19 19 20 19 19 19 18 18 17 16 16 15 15
15 16 16 17 17 17 17 17 17 16 16 15 15 15 15 15 15 16 17 18 18 19 19 19 20 19 19 18 16 15 15 15 16 17 18 18 18 18 18 18 19 20 20 18 14 15 19 24 26 26 26 25 24 23 21 20 20 19 20 20 20 20 20 20 20 19 19 18 17
15 15 16 16 17 17 17 17 17 16 16 15 15 15 15 15 15 16 17 17 18 19 19 20 20 20 19 17 16 15 14 15 15 17 18 18 19 18 17 16 17 19 21 19 15 14 17 22 24 25 25 25 25 24 23 22 22 22 22 22 22 22 23 23 22 22 21 20 19
15 15 15 16 17 17 17 17 17 17 16 16 15 15 15 15 15 16 16 17 18 18 19 20 20 20 19 18 16 15 14 14 15 16 17 18 19 19 18 16 15 17 20 21 17 15 16 19 23 25 24 24 24 24 24 24 24 24 25 25 25 25 25 25 24 24 23 21 20
14 15 15 16 16 17 17 18 17 17 17 16 16 16 15 15 15 15 16 16 17 18 19 19 20 20 19 18 17 15 15 14 15 16 16 17 18 18 18 17 15 15 18 21 18 15 14 16 21 24 24 24 24 24 24 24 25 25 26 26 27 27 27 26 26 25 23 21 20
14 14 15 16 16 17 18 18 18 18 17 17 16 16 16 15 15 15 15 16 16 17 18 19 19 19 19 18 17 16 15 15 15 16 16 17 18 18 18 18 16 14 15 18 19 16 13 14 19 22 23 23 23 23 23 23 24 24 25 26 26 27 27 27 27 25 23 21 19
14 14 15 16 16 17 18 18 18 18 18 17 17 17 16 16 16 16 16 16 16 16 17 18 18 19 19 18 18 17 16 16 16 16 16 17 17 18 18 18 17 15 14 15 19 18 15 13 16 19 21 22 22 22 22 22 22 23 23 24 25 26 26 27 27 25 23 21 18
13 14 15 15 16 17 18 18 18 18 18 18 18 17 17 16 16 16 16 16 16 16 16 17 17 18 18 18 18 17 17 17 17 17 17 17 18 18 18 18 17 16 14 15 18 20 18 15 14 16 19 20 21 21 21 21 21 22 22 23 23 24 25 25 26 25 23 21 18
13 14 14 15 16 17 17 18 18 18 18 18 18 18 18 17 17 16 16 16 16 16 16 17 17 17 17 18 18 18 18 18 18 18 18 18 18 18 17 17 17 16 16 15 17 20 21 18 15 15 16 19 20 21 21 20 21 21 21 22 22 23 23 24 24 24 23 22 19
12 13 14 15 16 16 17 18 18 18 18 19 19 18 18 18 17 17 16 16 16 16 16 17 17 18 18 18 18 18 18 18 18 19 19 18 18 18 17 17 17 17 16 16 17 19 21 21 18 16 15 17 18 20 20 20 20 21 21 21 22 22 22 23 23 23 23 22 21
12 13 13 14 15 16 17 17 18 18 18 19 19 19 18 18 18 17 17 17 17 17 17 17 17 18 18 18 18 18 19 19 19 19 19 19 19 19 18 17 17 17 17 17 17 18 20 22 21 19 17 16 17 17 19 20 20 20 20 21 21 21 22 22 22 23 23 23 23
12 12 13 14 15 16 17 17 18 18 18 18 18 19 19 19 19 18 18 18 17 17 17 17 17 17 18 18 18 18 19 19 19 19 19 20 20 20 19 18 17 17 17 17 17 18 19 21 22 22 21 19 17 15 16 18 20 20 20 20 21 21 21 22 22 23 23 23 24
11 12 13 14 15 15 16 17 17 18 18 18 18 19 19 19 19 19 19 18 18 18 18 18 17 18 18 18 18 19 19 19 20 20 20 20 20 20 20 19 18 17 17 17 18 18 19 20 22 23 24 24 20 16 13 16 19 20 20 20 20 20 21 21 22 22 23 23 24
11 12 13 13 14 15 16 16 17 17 17 18 18 19 19 19 19 19 19 19 20 19 19 18 18 18 18 18 19 19 19 20 20 20 20 20 21 21 21 20 19 18 17 17 18 18 19 19 21 22 25 26 24 19 14 13 16 19 21 20 20 20 20 21 21 22 23 23 24
11 12 12 13 14 15 15 16 17 17 17 18 18 18 18 19 19 19 20 20 21 20 20 20 19 18 18 18 19 19 20 20 20 21 21 21 21 21 21 21 20 19 18 17 18 18 18 19 20 21 23 26 26 23 16 12 13 17 20 21 21 20 20 20 21 22 22 23 23
11 12 12 13 14 14 15 16 16 17 17 17 17 18 18 19 19 20 20 21 21 21 21 20 19 19 18 18 19 19 20 20 20 20 21 21 21 21 21 21 21 19 18 17 17 17 18 18 19 20 21 23 26 25 20 13 12 14 19 22 22 21 20 20 21 22 22 23 23
11 11 12 13 13 14 14 15 16 16 17 17 17 17 18 18 19 20 20 20 21 21 21 21 20 19 18 18 19 19 19 19 19 19 20 20 21 21 21 21 21 20 19 18 17 17 17 18 18 19 19 20 24 26 23 17 13 13 17 21 22 22 21 21 22 22 23 23 23
11 11 12 12 13 13 14 14 15 15 16 16 17 17 18 18 19 19 20 20 21 21 21 21 20 19 18 18 18 18 18 18 18 18 18 19 19 19 20 20 20 20 20 18 18 17 17 17 18 18 18 19 22 25 25 21 15 13 15 19 21 22 22 22 23 23 24 24 24
Wind_Direction
354 354 354 355 355 355 356 357 357 358 357 356 356 356 356 356 354 352 350 348 345 342 341 341 342 343 344 346 347 347 347 348 347 345 342 339 337 337 337 338 339 340 340 339 337 333 330 327 322 317 312 308 305 304 303 302 299 297 294 293 292 292 291 289 289 291 291 288 285
353 354 354 354 355 355 356 357 357 356 356 355 355 355 356 356 354 351 349 348 346 344 342 341 343 345 347 347 347 348 349 349 349 346 343 341 340 339 339 340 342 343 344 344 342 339 336 333 328 322 316 311 309 307 305 303 301 298 294 293 292 291 291 290 292 294 294 291 287
353 354 354 354 354 354 355 355 355 355 355 355 354 355 356 356 354 351 350 349 349 347 344 342 344 346 347 348 348 349 350 350 349 346 344 343 342 342 343 343 344 346 348 348 347 344 342 339 335 329 323 318 315 311 308 306 302 297 292 291 291 291 291 292 295 299 299 295 292
354 354 354 354 353 353 353 353 353 354 354 354 354 356 357 356 353 351 351 351 350 348 347 346 346 346 347 347 349 351 352 352 351 348 347 346 345 346 347 347 348 349 350 351 349 348 346 343 340 336 332 327 322 319 317 313 307 300 294 292 292 292 293 294 298 301 302 300 297
355 355 355 354 353 353 353 354 353 353 353 354 355 356 356 354 353 352 351 350 350 350 351 351 349 347 347 348 350 352 354 354 354 352 350 349 349 350 351 352 352 353 353 352 351 349 347 345 343 342 340 336 332 329 327 325 317 307 299 296 294 295 296 298 301 303 304 303 303
355 355 355 355 353 352 353 353 353 352 353 353 355 356 355 353 352 352 351 350 351 353 355 354 352 350 350 351 352 353 355 356 356 355 353 352 352 353 354 355 356 357 356 355 352 351 348 346 346 346 345 342 339 337 336 333 325 316 307 301 298 299 300 302 306 308 308 308 308
356 356 355 354 353 351 351 351 351 352 352 353 355 355 354 353 353 352 352 351 352 354 355 355 354 353 352 352 352 353 355 357 357 357 356 356 357 357 357 359 0 0 360 357 354 352 351 351 349 348 346 345 344 344 344 340 333 326 320 313 308 307 307 309 313 314 314 314 316
357 357 356 355 353 351 350 349 349 349 350 351 352 353 354 354 354 353 352 352 353 354 355 356 355 354 354 353 353 354 356 358 358 358 359 360 360 359 0 2 3 3 2 360 356 354 355 357 356 353 351 349 348 349 349 347 343 337 333 328 324 321 319 320 321 322 323 325 328
357 357 356 355 354 352 350 348 347 346 346 347 349 351 353 354 354 353 352 352 352 354 355 354 354 355 355 354 354 355 357 358 358 358 359 1 1 1 2 4 6 5 4 3 358 357 359 3 4 3 360 356 354 354 354 354 352 349 346 343 341 339 338 338 338 339 339 340 343
356 356 355 354 353 353 351 348 345 343 341 342 345 348 351 354 354 354 353 351 351 352 353 353 353 354 355 355 356 357 358 359 359 359 0 2 2 2 3 5 7 7 7 5 1 359 3 8 11 12 12 10 7 4 3 2 1 1 2 3 5 7 9 10 10 7 4 1 360
356 356 355 354 353 352 350 346 342 339 337 337 340 345 349 352 353 354 353 352 351 350 351 351 352 353 354 355 356 357 358 359 359 360 0 2 2 3 4 5 7 9 10 8 3 1 4 10 14 17 20 21 22 20 17 15 16 19 25 32 36 37 37 35 31 27 23 19 15
355 355 355 353 353 351 349 345 340 336 333 333 336 340 345 349 351 352 353 352 350 349 348 349 350 351 352 354 356 357 358 359 359 359 360 1 2 3 4 6 9 12 12 9 4 2 5 10 13 17 21 26 30 32 33 34 36 40 45 49 50 48 45 41 38 35 33 30 24
355 355 354 353 352 350 347 343 339 335 331 330 331 335 340 344 348 350 351 351 349 348 347 348 349 349 350 352 354 357 358 358 358 358 358 359 0 1 3 5 9 12 13 10 5 3 4 7 10 14 18 24 31 37 42 46 50 52 53 51 48 45 42 40 39 38 37 34 28
355 354 353 352 350 348 346 342 339 335 332 329 329 331 335 339 344 347 349 349 348 347 347 347 347 347 347 349 352 355 357 357 357 357 357 357 358 360 2 4 8 12 14 11 5 2 3 4 7 10 14 18 26 34 41 47 50 51 50 46 41 38 36 35 35 36 36 35 30
355 354 352 351 350 348 346 342 340 337 333 330 329 330 331 335 340 343 346 346 347 347 346 346 346 346 345 346 349 352 354 356 356 357 357 356 356 358 0 3 6 11 14 12 5 2 2 2 4 8 11 13 18 24 31 36 38 39 40 40 38 35 32 29 27 28 30 32 29
354 353 352 351 350 348 346 344 342 339 336 333 331 330 331 333 336 340 342 344 345 345 345 345 344 344 344 344 345 348 351 353 355 357 357 357 356 357 359 2 5 10 13 12 6 2 1 0 1 5 9 11 13 16 19 22 25 27 30 32 34 35 33 30 27 25 27 30 31
354 353 352 351 350 349 347 345 344 341 339 336 334 333 332 333 335 338 340 342 342 342 343 343 343 344 344 343 343 344 347 350 353 356 358 358 357 356 357 1 6 9 12 11 6 2 1 359 358 1 5 8 10 12 13 15 17 19 21 24 26 28 29 29 29 29 32 35 37
354 353 352 352 351 350 349 347 346 344 342 340 338 336 335 335 335 337 338 340 340 340 340 341 342 344 344 343 342 342 344 347 351 355 358 359 358 356 357 2 8 11 11 11 7 3 1 359 357 357 359 2 6 8 10 11 12 13 14 16 18 20 21 22 23 25 29 33 37
354 352 352 352 351 351 350 349 348 346 345 343 342 340 339 338 337 337 337 338 339 339 339 339 340 342 344 344 342 341 342 345 349 353 357 360 358 357 358 4 12 15 13 11 7 4 2 1 359 356 355 356 358 1 4 6 7 7 7 8 10 11 13 14 14 15 18 22 27
353 352 352 352 352 352 351 351 349 348 347 346 344 343 341 340 339 338 337 338 338 338 338 338 339 341 342 343 341 340 340 343 347 352 356 359 359 358 359 6 16 20 16 12 6 2 2 4 3 0 357 354 353 354 356 358 360 1 1 2 3 5 6 7 7 7 7 9 13
352 351 351 352 352 352 352 351 351 350 348 347 345 344 343 341 340 339 339 338 338 338 338 338 338 339 340 341 341 340 340 341 345 350 355 358 360 359 0 6 16 23 22 14 4 0 1 5 6 5 2 358 354 352 352 352 354 356 357 358 359 0 2 2 2 1 360 359 360
352 352 352 352 352 353 353 352 352 350 348 346 345 344 343 342 341 340 340 339 339 339 339 338 337 337 338 340 341 340 340 340 344 348 353 357 359 360 1 5 13 21 25 19 4 359 0 5 7 7 6 3 359 356 353 352 352 352 353 354 355 356 356 357 357 355 354 352 351
353 352 352 352 352 353 353 353 352 350 348 346 345 344 343 343 342 342 342 341 341 341 340 339 337 337 338 339 341 341 340 341 343 347 351 355 358 359 1 3 8 16 23 23 7 359 360 4 6 7 8 7 6 3 359 356 354 352 352 351 352 352 353 352 351 350 348 347 345
354 353 353 352 353 353 354 353 352 350 348 347 346 344 343 343 343 343 344 345 345 345 343 341 340 339 339 340 342 342 342 342 344 346 349 353 356 358 360 0 2 6 15 22 13 4 2 4 5 6 7 8 9 8 7 4 1 359 357 356 356 356 356 355 353 351 350 348 346
355 354 354 353 353 354 354 353 352 351 349 347 345 344 343 343 344 345 346 347 349 349 347 346 344 344 344 344 344 343 343 344 346 347 349 352 355 357 358 358 355 357 4 16 20 15 8 5 5 6 6 7 9 11 12 12 11 10 8 6 5 4 2 1 359 357 355 353 351
357 356 355 354 355 355 355 354 353 351 349 347 345 344 343 343 344 344 346 349 351 351 351 350 349 349 348 347 346 345 344 345 347 349 351 353 355 356 357 357 353 353 359 11 20 21 13 7 6 6 6 7 8 11 14 16 17 17 17 16 14 11 9 7 5 2 359 356 354
358 357 357 357 356 356 356 355 355 353 350 348 346 345 344 344 344 344 346 348 351 352 353 353 353 352 351 350 348 346 344 344 346 348 351 353 354 355 356 355 353 354 359 6 12 18 16 10 7 7 7 7 8 10 13 16 18 19 20 20 19 17 15 12 9 6 2 358 355
359 359 358 358 357 357 357 357 356 354 352 350 348 346 345 345 343 343 344 346 349 352 354 354 354 353 352 351 348 346 343 342 343 345 348 350 352 353 353 353 353 357 1 2 3 9 16 13 9 8 8 8 9 11 13 16 18 19 20 20 20 19 17 15 13 9 5 360 358
360 359 359 359 358 358 359 358 357 356 354 352 350 348 346 345 343 341 341 343 347 350 352 353 354 353 352 350 347 345 342 340 340 341 343 346 348 350 351 352 351 355 359 359 356 359 8 14 11 9 9 9 10 12 14 17 19 20 20 19 19 19 18 17 15 12 8 3 2
1 0 360 360 359 360 360 359 359 358 356 355 352 350 347 345 342 340 340 341 344 347 349 351 352 352 351 349 346 344 341 339 337 338 339 341 344 346 348 350 350 351 353 354 352 351 354 5 10 10 10 10 10 11 13 16 18 19 19 19 18 18 18 18 17 15 11 8 7
1 1 1 1 1 1 1 0 360 359 358 356 354 352 350 347 344 341 339 339 341 343 345 347 348 349 349 348 346 343 341 338 337 336 336 337 339 342 345 348 349 350 350 352 351 347 344 348 0 8 10 10 10 10 11 12 15 16 17 17 17 17 17 17 17 16 15 12 13
1 1 1 2 2 1 1 1 1 1 360 359 357 355 352 349 346 343 340 339 339 339 340 341 343 345 346 346 345 344 341 339 337 336 335 335 336 338 341 345 347 349 350 350 348 345 341 340 345 359 8 10 10 9 9 9 9 11 13 14 15 15 15 15 16 16 16 15 16
1 1 2 2 2 2 2 2 2 2 1 1 359 357 355 352 349 346 343 341 339 337 336 337 338 340 342 343 343 343 341 339 338 336 335 334 334 336 338 341 344 346 348 347 345 344 343 339 337 344 359 8 10 9 8 6 5 5 7 9 11 12 13 13 14 15 15 14 14
1 2 3 4 3 3 3 2 2 3 3 3 2 0 358 355 353 350 347 344 342 339 337 336 336 337 338 340 341 340 339 338 337 337 336 335 335 335 336 337 340 342 343 343 343 344 344 341 336 336 344 356 5 7 5 3 2 1 1 2 4 6 8 9 11 12 12 12 12
1 2 3 4 5 4 4 3 3 3 4 4 3 3 1 359 357 354 352 349 346 343 340 338 337 336 336 338 339 338 337 337 336 336 336 335 334 333 333 334 336 337 338 339 339 340 342 341 340 336 334 340 349 357 359 359 358 357 356 356 357 359 2 4 6 8 9 9 10
360 1 3 5 5 5 4 4 4 4 4 4 4 4 3 2 1 358 356 354 351 348 345 342 340 339 338 338 338 338 337 336 335 335 334 334 333 332 331 331 333 334 335 336 336 336 337 340 340 336 332 332 335 340 346 351 352 352 351 351 352 353 355 358 360 2 4 6 8
358 0 3 4 5 5 5 4 3 3 3 3 3 4 4 4 3 1 359 357 355 353 351 348 346 343 342 340 339 339 338 337 335 334 333 332 331 330 329 329 330 332 333 334 333 333 334 336 337 337 334 331 330 330 332 338 344 347 347 346 346 347 349 351 353 355 358 0 4
355 358 1 4 4 5 5 4 2 1 1 2 2 2 3 3 3 3 2 0 358 356 354 353 350 347 345 343 341 341 340 339 337 335 333 331 330 329 328 328 328 330 331 332 332 331 331 332 335 336 335 331 329 327 325 325 334 340 342 342 342 342 343 345 347 349 351 354 358
353 356 359 2 3 4 4 3 2 0 359 359 359 360 1 1 2 3 2 1 360 358 356 354 352 350 347 345 344 343 343 342 340 337 334 332 330 329 328 327 327 328 330 330 330 330 330 331 333 335 334 331 327 325 322 318 322 331 336 338 338 338 338 339 341 342 344 347 350
352 354 356 359 1 2 2 2 1 360 358 357 357 357 359 360 1 1 1 1 0 359 358 356 354 351 349 348 346 346 345 345 343 340 337 334 331 330 328 326 326 327 328 329 330 330 330 331 332 333 333 330 326 324 321 317 314 321 329 333 335 336 336 336 337 338 339 341 343
350 352 354 356 358 359 360 360 360 359 357 356 355 355 356 358 359 359 0 0 0 360 359 357 355 353 352 351 350 349 349 349 348 346 342 338 335 332 330 328 326 326 327 328 329 330 330 332 333 334 333 330 327 323 320 316 311 312 321 327 330 333 335 335 335 336 337 338 338